Location: Nelson
(41.2830°S, 173.2830°E)
Time: 06:49:59
(UTC+12:00)

ISS - Pass Details

Date: 18 May 2025
Orbit: 415 x 417 km, 51.6° (Epoch: 16 June)

Event Time Altitude Azimuth Distance (km) Brightness Sun altitude
Exits shadow 05:48:45 33° 336° (NNW) 743 -2.7 -19.1°
Maximum altitude 05:50:01 57° 39° (NE) 506 -3.2 -18.8°
Drops below altitude 10° 05:53:24 10° 119° (ESE) 1,527 -0.2 -18.2°
Sets 05:55:33 0° 123° (ESE) 2,399 0.8 -17.8°
